(152307) = 2005 TL74

Discovered at Anderson Mesa on 2005-10-07 by LONEOS.

Orbit

Orbit type: Main Belt

Note: WebGL enabled browser required.

epoch2024-03-31.0
epoch JD2460400.5
perihelion date2022-02-03.78198
perihelion JD2459614.28198
argument of perihelion (°)213.70556
ascending node (°)178.61912
inclination (°)12.59136
eccentricity0.1143986
perihelion distance (AU)2.7478544
Tisserand w.r.t. Jupiter3.2
ΔV w.r.t. Earth (km/sec)11.0
semimajor axis (AU)3.1028116
mean anomaly (°)141.77967
mean daily motion (°/day)0.18033120
aphelion distance (AU)3.458
period (years)5.47
P-vector [x]0.84471002
P-vector [y]0.52647102
P-vector [z]0.09640151
Q-vector [x]-0.53519846
Q-vector [y]0.82908746
Q-vector [z]0.16179180
absolute magnitude15.11
phase slope0.15
uncertainty0
referenceE2024-GJ9
observations used818
oppositions19
arc length (days)8955
first opposition used1999
last opposition used2024
residual rms (arc-secs)0.65
perturbers coarse indicatorM-v
perturbers precise indicator003Ek
first observation date used1999-10-06.0
last observation date used2024-04-12.0
computer nameMPCLINUX
JD of orbit computation2456877.871323
perihelion JD uncertainty (days)1.1488E-04
argument of perihelion uncertainty (°)2.4492E-05
ascending node uncertainty (°)1.8353E-05
inclination uncertainty (°)5.1665E-06
eccentricity uncertainty 5.4472E-08
perihelion distance uncertainty (AU)1.7942E-07
Minimum Orbit Intersection Distances (in AU)
for orbit epoch: 2460400.5, reference: E2024-GJ9
Mercury2.41583
Venus2.02601
Earth1.76157
Mars1.32854
Jupiter2.01962
Saturn6.07802
Uranus15.071
Neptune27.0825

Observations

786 total observations over interval: 1999 10 06.17068 – 2024 03 17.511589
These data are available for download (format description).

Date (UT) J2000 RA J2000 Dec Magn Location Ref
1999 10 06.17068 22 35 04.99 -05 40 09.0 18.9   704 – Lincoln Laboratory ETS, New Mexico MPS 155338
1999 10 06.18409 22 35 04.67 -05 40 15.3 19.4   704 – Lincoln Laboratory ETS, New Mexico MPS 155338
1999 10 06.19751 22 35 04.39 -05 40 21.2 19.1   704 – Lincoln Laboratory ETS, New Mexico MPS 155338
1999 10 06.21075 22 35 04.09 -05 40 26.5 19.4   704 – Lincoln Laboratory ETS, New Mexico MPS 155338
1999 10 06.22397 22 35 03.81 -05 40 32.7 19.4   704 – Lincoln Laboratory ETS, New Mexico MPS 155338
2002 02 11.39849 11 36 39.29 -01 42 54.5 20.6   704 – Lincoln Laboratory ETS, New Mexico MPS 152189
2002 02 11.41281 11 36 38.93 -01 42 50.9 20.1   704 – Lincoln Laboratory ETS, New Mexico MPS 152189
2002 02 11.44155 11 36 38.13 -01 42 40.9 19.9   704 – Lincoln Laboratory ETS, New Mexico MPS 152189
2002 03 13.27935 11 18 03.85 +01 36 38.0 19.1   704 – Lincoln Laboratory ETS, New Mexico MPS 152189
2002 03 13.29321 11 18 03.28 +01 36 45.3 19.3   704 – Lincoln Laboratory ETS, New Mexico MPS 152189
2002 03 13.30708 11 18 02.68 +01 36 51.3 19.3   704 – Lincoln Laboratory ETS, New Mexico MPS 152189
2002 03 13.32107 11 18 02.10 +01 36 57.7 19.1   704 – Lincoln Laboratory ETS, New Mexico MPS 152189
2002 04 14.14860 11 00 41.05 +05 09 01.1 20.1   704 – Lincoln Laboratory ETS, New Mexico MPS 152189
2002 04 14.16247 11 00 40.80 +05 09 06.6 20.0   704 – Lincoln Laboratory ETS, New Mexico MPS 152189
2002 04 14.17635 11 00 40.46 +05 09 11.1 20.3   704 – Lincoln Laboratory ETS, New Mexico MPS 152189
2002 04 14.19023 11 00 40.17 +05 09 15.2 20.2   704 – Lincoln Laboratory ETS, New Mexico MPS 152189
2003 03 27.46978 15 53 29.80 -08 35 41.7 21.4 V 691 – Steward Observatory, Kitt Peak-Spacewatch MPS 152189
2003 03 27.48291 15 53 29.78 -08 35 37.2 20.9 V 691 – Steward Observatory, Kitt Peak-Spacewatch MPS 152189
2003 03 27.49644 15 53 29.61 -08 35 33.8 21.4 V 691 – Steward Observatory, Kitt Peak-Spacewatch MPS 152189
2003 06 02.19121 15 16 33.83 -03 17 21.0 21.8 V 691 – Steward Observatory, Kitt Peak-Spacewatch MPS 152189
2003 06 02.21881 15 16 32.79 -03 17 16.6 21.8 V 691 – Steward Observatory, Kitt Peak-Spacewatch MPS 152189
2003 06 02.24529 15 16 31.72 -03 17 12.3 22.0 V 691 – Steward Observatory, Kitt Peak-Spacewatch MPS 152189
2004 06 17.37325 20 29 03.64 -03 17 49.0 20.0 V 691 – Steward Observatory, Kitt Peak-Spacewatch MPS 155338
2004 06 17.40093 20 29 03.07 -03 17 47.0 19.9 V 691 – Steward Observatory, Kitt Peak-Spacewatch MPS 155338
2004 06 17.42844 20 29 02.52 -03 17 45.0 19.9 V 691 – Steward Observatory, Kitt Peak-Spacewatch MPS 155338
2005 10 01.41007 03 10 39.57 +06 50 57.8 19.1 V 703 – Catalina Sky Survey MPS 152189
2005 10 01.41821 03 10 39.43 +06 50 54.2 18.8 V 703 – Catalina Sky Survey MPS 152189
2005 10 01.42642 03 10 39.32 +06 50 49.7 18.8 V 703 – Catalina Sky Survey MPS 152189
2005 10 01.43464 03 10 39.21 +06 50 46.0 19.0 V 703 – Catalina Sky Survey MPS 152189
2005 10 07.33753 03 08 52.88 +06 05 04.2 18.8 R 699 – Lowell Observatory-LONEOS MPS 147672
2005 10 07.36664 03 08 52.28 +06 04 50.3   699 – Lowell Observatory-LONEOS MPS 147672
2005 10 07.42715 03 08 50.82 +06 04 21.9   699 – Lowell Observatory-LONEOS MPS 147672
2005 10 07.45634 03 08 50.12 +06 04 07.5   699 – Lowell Observatory-LONEOS MPS 147672
2005 10 10.38717 03 07 39.43 +05 40 40.8 19.4 V 703 – Catalina Sky Survey MPS 147672
2005 10 10.39483 03 07 39.18 +05 40 36.6 19.2 V 703 – Catalina Sky Survey MPS 147672
2005 10 10.40249 03 07 38.92 +05 40 33.6 19.0 V 703 – Catalina Sky Survey MPS 147672
2005 10 10.41017 03 07 38.67 +05 40 30.1 18.9 V 703 – Catalina Sky Survey MPS 147672
2005 10 12.440897 03 06 43.178 +05 24 04.62 19.24 V 645 – Apache Point-Sloan Digital Sky Survey MPS 390047
2005 10 12.444369 03 06 43.075 +05 24 02.92 19.92   645 – Apache Point-Sloan Digital Sky Survey MPS 390047
2005 10 22.41463 03 01 05.30 +04 03 00.7 18.4 V 703 – Catalina Sky Survey MPS 152189
2005 10 22.42179 03 01 04.94 +04 02 57.4 18.8 V 703 – Catalina Sky Survey MPS 152189
2005 10 22.42899 03 01 04.58 +04 02 54.3 18.9 V 703 – Catalina Sky Survey MPS 152189
2005 10 22.43626 03 01 04.33 +04 02 50.2 19.0 V 703 – Catalina Sky Survey MPS 152189
2005 10 27.32578 02 57 47.17 +03 24 11.8 18.1 R 699 – Lowell Observatory-LONEOS MPS 152189
2005 10 27.34970 02 57 46.09 +03 24 02.0   699 – Lowell Observatory-LONEOS MPS 152189
2005 10 27.37362 02 57 45.06 +03 23 50.0   699 – Lowell Observatory-LONEOS MPS 152189
2005 10 27.39755 02 57 44.01 +03 23 39.3   699 – Lowell Observatory-LONEOS MPS 152189
2005 10 28.24663 02 57 08.46 +03 17 06.3 18.5 V 703 – Catalina Sky Survey MPS 152189
2005 10 28.25193 02 57 08.20 +03 17 02.6 18.7 V 703 – Catalina Sky Survey MPS 152189
2005 10 28.25732 02 57 07.95 +03 17 01.4 18.7 V 703 – Catalina Sky Survey MPS 152189
2005 10 28.26265 02 57 07.66 +03 16 59.5 18.7 V 703 – Catalina Sky Survey MPS 152189
2005 11 03.30789 02 52 43.86 +02 32 23.4 18.5 V 703 – Catalina Sky Survey MPS 149683
2005 11 03.31216 02 52 43.64 +02 32 21.0 18.5 V 703 – Catalina Sky Survey MPS 149683
2005 11 03.31643 02 52 43.46 +02 32 19.5 18.5 V 703 – Catalina Sky Survey MPS 149683
2005 11 03.32072 02 52 43.28 +02 32 17.6 18.7 V 703 – Catalina Sky Survey MPS 149683
2005 11 06.29016 02 50 31.01 +02 11 58.6 18.7 R 699 – Lowell Observatory-LONEOS MPS 149683
2005 11 06.30837 02 50 30.11 +02 11 51.3   699 – Lowell Observatory-LONEOS MPS 149683
2005 11 06.32659 02 50 29.33 +02 11 44.6   699 – Lowell Observatory-LONEOS MPS 149683
2005 11 06.34477 02 50 28.50 +02 11 37.6   699 – Lowell Observatory-LONEOS MPS 149683
2005 11 09.35475 02 48 14.65 +01 52 20.8 18.4 V 703 – Catalina Sky Survey MPS 152189
2005 11 09.36480 02 48 14.18 +01 52 17.4 18.5 V 703 – Catalina Sky Survey MPS 152189
2005 11 09.37484 02 48 13.68 +01 52 13.3 18.2 V 703 – Catalina Sky Survey MPS 152189
2005 11 09.38526 02 48 13.21 +01 52 09.4 18.2 V 703 – Catalina Sky Survey MPS 152189
2005 11 20.351447 02 40 33.132 +00 55 08.46 19.26 V 645 – Apache Point-Sloan Digital Sky Survey MPS 390047
2005 11 20.354919 02 40 32.996 +00 55 07.59 19.98   645 – Apache Point-Sloan Digital Sky Survey MPS 390047
2005 11 22.29773 02 39 19.47 +00 47 24.9 18.9 V 703 – Catalina Sky Survey MPS 152189
2005 11 22.30303 02 39 19.22 +00 47 23.5 18.8 V 703 – Catalina Sky Survey MPS 152189
2005 11 22.30833 02 39 18.97 +00 47 22.4 18.8 V 703 – Catalina Sky Survey MPS 152189
2005 11 22.31363 02 39 18.82 +00 47 21.3 18.8 V 703 – Catalina Sky Survey MPS 152189
2005 11 26.331987 02 36 57.078 +00 33 53.92 19.59 V 645 – Apache Point-Sloan Digital Sky Survey MPS 390047
2005 11 26.33235 02 36 57.07 +00 33 53.7 19.9   705 – Apache Point MPS 211692
2005 11 26.33318 02 36 57.04 +00 33 53.5 19.4 V 705 – Apache Point MPS 211692
2005 11 26.335459 02 36 56.956 +00 33 53.32 20.33   645 – Apache Point-Sloan Digital Sky Survey MPS 390047
2005 11 29.17703 02 35 26.80 +00 26 25.4 18.9 V 703 – Catalina Sky Survey MPS 152189
2005 11 29.18344 02 35 26.59 +00 26 24.7 18.8 V 703 – Catalina Sky Survey MPS 152189
2005 11 29.18992 02 35 26.26 +00 26 21.8 19.0 V 703 – Catalina Sky Survey MPS 152189
2005 11 29.19634 02 35 26.08 +00 26 22.2 18.8 V 703 – Catalina Sky Survey MPS 152189
2005 11 30.316137 02 34 52.796 +00 23 54.18 19.40 V 645 – Apache Point-Sloan Digital Sky Survey MPS 390047
2005 11 30.31649 02 34 52.79 +00 23 54.1 19.8   705 – Apache Point MPS 211692
2005 11 30.31733 02 34 52.77 +00 23 54.0 19.3 V 705 – Apache Point MPS 211692
2005 11 30.319609 02 34 52.689 +00 23 53.75 20.15   645 – Apache Point-Sloan Digital Sky Survey MPS 390047
2005 12 06.13611 02 32 25.02 +00 15 21.8 18.8 C 704 – Lincoln Laboratory ETS, New Mexico MPS 294258
2005 12 06.16122 02 32 24.35 +00 15 21.5 18.7 C 704 – Lincoln Laboratory ETS, New Mexico MPS 294258
2005 12 06.17379 02 32 24.05 +00 15 19.5 18.9 C 704 – Lincoln Laboratory ETS, New Mexico MPS 294258
2005 12 06.18634 02 32 23.81 +00 15 18.3 18.6 C 704 – Lincoln Laboratory ETS, New Mexico MPS 294258
2007 02 16.23280 09 02 02.32 +04 48 57.9 19.7 R 644 – Palomar Mountain/NEAT MPS 200398
2007 02 16.25357 09 02 01.40 +04 49 06.2 19.1 R 644 – Palomar Mountain/NEAT MPS 200398
2007 02 16.27422 09 02 00.48 +04 49 15.0 19.5 R 644 – Palomar Mountain/NEAT MPS 200398
